Time,TemperatureF,DewpointF,PressureIn,WindDirection,WindDirectionDegrees,WindSpeedMPH,WindSpeedGustMPH,Humidity,HourlyPrecipIn,Conditions,Clouds,dailyrainin,SoftwareType,DateUTC
2013-02-25 00:09:00,24.7,7.0,30.21,ENE,75,0.0,-999.0,46,-99.99,,,0.00,weatherlink.com 1.10,2013-02-25 07:09:00,
2013-02-25 00:24:00,24.5,7.0,30.21,North,349,2.0,-999.0,47,-99.99,,,0.00,weatherlink.com 1.10,2013-02-25 07:24:00,
2013-02-25 00:39:00,24.2,7.0,30.22,NE,56,0.0,-999.0,48,-99.99,,,0.00,weatherlink.com 1.10,2013-02-25 07:39:00,
2013-02-25 00:54:00,23.4,6.0,30.22,NW,322,2.0,-999.0,48,-99.99,,,0.00,weatherlink.com 1.10,2013-02-25 07:54:00,
2013-02-25 01:09:00,23.9,7.0,30.23,East,86,1.0,-999.0,49,-99.99,,,0.00,weatherlink.com 1.10,2013-02-25 08:09:00,
2013-02-25 01:24:00,24.5,7.0,30.22,NNE,17,2.0,-999.0,48,-99.99,,,0.00,weatherlink.com 1.10,2013-02-25 08:24:00,
2013-02-25 01:39:00,24.6,7.0,30.22,NE,55,2.0,-999.0,47,-99.99,,,0.00,weatherlink.com 1.10,2013-02-25 08:39:00,
2013-02-25 01:54:00,24.5,7.0,30.22,East,86,1.0,-999.0,48,-99.99,,,0.00,weatherlink.com 1.10,2013-02-25 08:54:00,
2013-02-25 02:09:00,23.6,7.0,30.21,NNE,13,3.0,-999.0,49,-99.99,,,0.00,weatherlink.com 1.10,2013-02-25 09:09:00,
2013-02-25 02:24:00,23.8,7.0,30.21,NNE,28,0.0,-999.0,49,-99.99,,,0.00,weatherlink.com 1.10,2013-02-25 09:24:00,
2013-02-25 02:39:00,23.9,7.0,30.22,WNW,286,2.0,-999.0,49,-99.99,,,0.00,weatherlink.com 1.10,2013-02-25 09:39:00,
2013-02-25 02:54:00,23.9,7.0,30.23,East,97,3.0,-999.0,48,-99.99,,,0.00,weatherlink.com 1.10,2013-02-25 09:54:00,
2013-02-25 03:09:00,23.6,7.0,30.23,NNW,336,0.0,-999.0,49,-99.99,,,0.00,weatherlink.com 1.10,2013-02-25 10:09:00,
2013-02-25 03:24:00,23.3,7.0,30.25,North,355,0.0,-999.0,49,-99.99,,,0.00,weatherlink.com 1.10,2013-02-25 10:24:00,
2013-02-25 03:39:00,22.7,7.0,30.25,North,355,0.0,-999.0,51,-99.99,,,0.00,weatherlink.com 1.10,2013-02-25 10:39:00,
2013-02-25 03:54:00,21.6,7.0,30.26,North,355,0.0,-999.0,53,-99.99,,,0.00,weatherlink.com 1.10,2013-02-25 10:54:00,
2013-02-25 04:09:00,20.5,7.0,30.27,North,355,0.0,-999.0,56,-99.99,,,0.00,weatherlink.com 1.10,2013-02-25 11:09:00,
2013-02-25 04:25:00,19.1,7.0,30.28,North,355,0.0,-999.0,59,-99.99,,,0.00,weatherlink.com 1.10,2013-02-25 11:25:00,
2013-02-25 04:40:00,18.2,6.0,30.28,North,355,0.0,-999.0,60,-99.99,,,0.00,weatherlink.com 1.10,2013-02-25 11:40:00,
2013-02-25 04:55:00,17.9,6.0,30.29,North,355,0.0,-999.0,61,-99.99,,,0.00,weatherlink.com 1.10,2013-02-25 11:55:00,
2013-02-25 05:10:00,18.2,7.0,30.29,North,355,0.0,-999.0,61,-99.99,,,0.00,weatherlink.com 1.10,2013-02-25 12:10:00,
2013-02-25 05:25:00,18.8,6.0,30.30,North,5,0.0,-999.0,58,-99.99,,,0.00,weatherlink.com 1.10,2013-02-25 12:25:00,
2013-02-25 05:40:00,19.1,6.0,30.30,North,5,0.0,-999.0,58,-99.99,,,0.00,weatherlink.com 1.10,2013-02-25 12:40:00,
2013-02-25 05:55:00,18.8,6.0,30.30,North,5,0.0,-999.0,58,-99.99,,,0.00,weatherlink.com 1.10,2013-02-25 12:55:00,
2013-02-25 06:10:00,19.7,6.0,30.30,NNE,25,0.0,-999.0,56,-99.99,,,0.00,weatherlink.com 1.10,2013-02-25 13:10:00,
2013-02-25 06:25:00,19.3,6.0,30.30,NNE,25,0.0,-999.0,57,-99.99,,,0.00,weatherlink.com 1.10,2013-02-25 13:25:00,
2013-02-25 06:40:00,19.0,6.0,30.30,NNE,25,0.0,-999.0,58,-99.99,,,0.00,weatherlink.com 1.10,2013-02-25 13:40:00,
2013-02-25 06:55:00,19.1,6.0,30.31,ENE,65,0.0,-999.0,57,-99.99,,,0.00,weatherlink.com 1.10,2013-02-25 13:55:00,
2013-02-25 07:25:00,20.1,7.0,30.31,NE,42,4.0,-999.0,56,-99.99,,,0.00,weatherlink.com 1.10,2013-02-25 14:25:00,
2013-02-25 07:40:00,21.9,7.0,30.31,ENE,59,1.0,-999.0,53,-99.99,,,0.00,weatherlink.com 1.10,2013-02-25 14:40:00,
2013-02-25 07:55:00,23.6,7.0,30.30,East,82,2.0,-999.0,50,-99.99,,,0.00,weatherlink.com 1.10,2013-02-25 14:55:00,
2013-02-25 08:10:00,25.6,8.0,30.30,NNE,19,0.0,-999.0,47,-99.99,,,0.00,weatherlink.com 1.10,2013-02-25 15:10:00,
2013-02-25 08:25:00,26.9,8.0,30.30,ESE,119,1.0,-999.0,44,-99.99,,,0.00,weatherlink.com 1.10,2013-02-25 15:25:00,
2013-02-25 08:40:00,27.8,8.0,30.31,NNE,24,4.0,-999.0,43,-99.99,,,0.00,weatherlink.com 1.10,2013-02-25 15:40:00,
2013-02-25 08:55:00,28.7,8.0,30.32,North,360,2.0,-999.0,41,-99.99,,,0.00,weatherlink.com 1.10,2013-02-25 15:55:00,
2013-02-25 09:10:00,29.8,9.0,30.32,North,360,4.0,-999.0,41,-99.99,,,0.00,weatherlink.com 1.10,2013-02-25 16:10:00,
2013-02-25 09:25:00,30.8,8.0,30.32,North,355,1.0,-999.0,38,-99.99,,,0.00,weatherlink.com 1.10,2013-02-25 16:25:00,
2013-02-25 09:40:00,31.9,8.0,30.32,NNE,32,0.0,-999.0,36,-99.99,,,0.00,weatherlink.com 1.10,2013-02-25 16:40:00,
2013-02-25 09:55:00,32.9,8.0,30.32,East,96,0.0,-999.0,35,-99.99,,,0.00,weatherlink.com 1.10,2013-02-25 16:55:00,
2013-02-25 10:10:00,33.8,7.0,30.32,North,355,0.0,-999.0,32,-99.99,,,0.00,weatherlink.com 1.10,2013-02-25 17:10:00,
2013-02-25 10:26:00,35.3,7.0,30.33,North,350,5.0,-999.0,30,-99.99,,,0.00,weatherlink.com 1.10,2013-02-25 17:26:00,
2013-02-25 10:40:00,35.6,6.0,30.31,NNW,342,3.0,-999.0,29,-99.99,,,0.00,weatherlink.com 1.10,2013-02-25 17:40:00,
2013-02-25 10:55:00,36.6,8.0,30.31,NE,49,1.0,-999.0,30,-99.99,,,0.00,weatherlink.com 1.10,2013-02-25 17:55:00,
2013-02-25 11:11:00,37.2,7.0,30.30,SSE,150,2.0,-999.0,28,-99.99,,,0.00,weatherlink.com 1.10,2013-02-25 18:11:00,
2013-02-25 11:26:00,37.0,12.0,30.30,SW,236,1.0,-999.0,36,-99.99,,,0.00,weatherlink.com 1.10,2013-02-25 18:26:00,
2013-02-25 11:41:00,35.9,11.0,30.30,NW,305,2.0,-999.0,36,-99.99,,,0.00,weatherlink.com 1.10,2013-02-25 18:41:00,
2013-02-25 11:56:00,37.0,12.0,30.29,WSW,237,0.0,-999.0,35,-99.99,,,0.00,weatherlink.com 1.10,2013-02-25 18:56:00,
2013-02-25 12:11:00,38.1,12.0,30.27,SW,234,1.0,-999.0,34,-99.99,,,0.00,weatherlink.com 1.10,2013-02-25 19:11:00,
2013-02-25 12:26:00,39.0,13.0,30.27,WSW,240,4.0,-999.0,34,-99.99,,,0.01,weatherlink.com 1.10,2013-02-25 19:26:00,
2013-02-25 12:41:00,38.8,12.0,30.26,SW,222,3.0,-999.0,34,-99.99,,,0.01,weatherlink.com 1.10,2013-02-25 19:41:00,
2013-02-25 12:56:00,38.8,12.0,30.26,WSW,242,1.0,-999.0,34,-99.99,,,0.01,weatherlink.com 1.10,2013-02-25 19:56:00,
2013-02-25 13:11:00,39.5,14.0,30.25,West,259,5.0,-999.0,36,-99.99,,,0.01,weatherlink.com 1.10,2013-02-25 20:11:00,
2013-02-25 13:26:00,39.5,12.0,30.24,SW,227,2.0,-999.0,33,-99.99,,,0.01,weatherlink.com 1.10,2013-02-25 20:26:00,
2013-02-25 13:41:00,40.8,14.0,30.23,SW,223,2.0,-999.0,34,-99.99,,,0.01,weatherlink.com 1.10,2013-02-25 20:41:00,
2013-02-25 13:56:00,42.1,13.0,30.22,SSE,161,3.0,-999.0,31,-99.99,,,0.01,weatherlink.com 1.10,2013-02-25 20:56:00,
2013-02-25 14:11:00,41.9,12.0,30.22,SW,224,2.0,-999.0,29,-99.99,,,0.01,weatherlink.com 1.10,2013-02-25 21:11:00,
2013-02-25 14:26:00,43.2,13.0,30.20,SSW,192,2.0,-999.0,29,-99.99,,,0.01,weatherlink.com 1.10,2013-02-25 21:26:00,
2013-02-25 14:41:00,43.1,11.0,30.21,SW,225,5.0,-999.0,27,-99.99,,,0.01,weatherlink.com 1.10,2013-02-25 21:41:00,
2013-02-25 14:56:00,43.4,13.0,30.21,South,184,2.0,-999.0,29,-99.99,,,0.01,weatherlink.com 1.10,2013-02-25 21:56:00,
2013-02-25 15:11:00,44.1,14.0,30.20,WSW,240,4.0,-999.0,29,-99.99,,,0.01,weatherlink.com 1.10,2013-02-25 22:11:00,
2013-02-25 15:26:00,44.1,13.0,30.19,SSE,162,4.0,-999.0,28,-99.99,,,0.01,weatherlink.com 1.10,2013-02-25 22:26:00,
2013-02-25 15:41:00,44.1,12.0,30.19,South,177,0.0,-999.0,27,-99.99,,,0.01,weatherlink.com 1.10,2013-02-25 22:41:00,
2013-02-25 15:56:00,44.2,11.0,30.18,SSW,209,0.0,-999.0,26,-99.99,,,0.01,weatherlink.com 1.10,2013-02-25 22:56:00,
2013-02-25 16:11:00,43.7,10.0,30.18,SW,226,3.0,-999.0,25,-99.99,,,0.01,weatherlink.com 1.10,2013-02-25 23:11:00,
2013-02-25 16:26:00,43.4,9.0,30.18,SW,226,1.0,-999.0,24,-99.99,,,0.01,weatherlink.com 1.10,2013-02-25 23:26:00,
2013-02-25 16:41:00,42.7,9.0,30.18,West,266,3.0,-999.0,25,-99.99,,,0.01,weatherlink.com 1.10,2013-02-25 23:41:00,
2013-02-25 16:56:00,41.8,8.0,30.18,WSW,258,1.0,-999.0,25,-99.99,,,0.01,weatherlink.com 1.10,2013-02-25 23:56:00,
2013-02-25 17:11:00,41.3,8.0,30.17,West,261,2.0,-999.0,25,-99.99,,,0.01,weatherlink.com 1.10,2013-02-26 00:11:00,
2013-02-25 17:26:00,41.1,8.0,30.17,WSW,257,1.0,-999.0,26,-99.99,,,0.01,weatherlink.com 1.10,2013-02-26 00:26:00,
2013-02-25 17:41:00,40.7,10.0,30.16,SW,216,0.0,-999.0,28,-99.99,,,0.01,weatherlink.com 1.10,2013-02-26 00:41:00,
2013-02-25 17:56:00,40.9,9.0,30.16,SW,229,0.0,-999.0,27,-99.99,,,0.01,weatherlink.com 1.10,2013-02-26 00:56:00,
2013-02-25 18:11:00,39.5,9.0,30.17,SW,229,0.0,-999.0,28,-99.99,,,0.01,weatherlink.com 1.10,2013-02-26 01:11:00,
2013-02-25 18:26:00,38.0,8.0,30.16,SW,229,0.0,-999.0,29,-99.99,,,0.01,weatherlink.com 1.10,2013-02-26 01:26:00,
2013-02-25 18:41:00,35.9,10.0,30.16,SW,229,0.0,-999.0,34,-99.99,,,0.01,weatherlink.com 1.10,2013-02-26 01:41:00,
2013-02-25 18:56:00,33.2,11.0,30.16,SW,229,0.0,-999.0,39,-99.99,,,0.01,weatherlink.com 1.10,2013-02-26 01:56:00,
2013-02-25 19:11:00,31.2,11.0,30.16,SW,229,0.0,-999.0,44,-99.99,,,0.01,weatherlink.com 1.10,2013-02-26 02:11:00,
2013-02-25 19:26:00,29.3,14.0,30.15,SW,229,0.0,-999.0,52,-99.99,,,0.01,weatherlink.com 1.10,2013-02-26 02:26:00,
2013-02-25 19:41:00,27.8,14.0,30.15,SW,229,0.0,-999.0,57,-99.99,,,0.01,weatherlink.com 1.10,2013-02-26 02:41:00,
2013-02-25 19:56:00,27.0,14.0,30.15,SW,229,0.0,-999.0,58,-99.99,,,0.01,weatherlink.com 1.10,2013-02-26 02:56:00,
2013-02-25 20:11:00,26.8,14.0,30.15,SW,229,0.0,-999.0,58,-99.99,,,0.01,weatherlink.com 1.10,2013-02-26 03:11:00,
2013-02-25 20:26:00,26.5,14.0,30.16,SW,229,0.0,-999.0,60,-99.99,,,0.01,weatherlink.com 1.10,2013-02-26 03:26:00,
2013-02-25 20:41:00,26.1,15.0,30.16,SW,229,0.0,-999.0,62,-99.99,,,0.01,weatherlink.com 1.10,2013-02-26 03:41:00,
2013-02-25 20:56:00,25.6,14.0,30.16,SW,229,0.0,-999.0,63,-99.99,,,0.01,weatherlink.com 1.10,2013-02-26 03:56:00,
2013-02-25 21:11:00,25.1,15.0,30.16,SW,229,0.0,-999.0,66,-99.99,,,0.01,weatherlink.com 1.10,2013-02-26 04:11:00,
2013-02-25 21:26:00,24.6,15.0,30.16,SW,229,0.0,-999.0,66,-99.99,,,0.01,weatherlink.com 1.10,2013-02-26 04:26:00,
2013-02-25 21:41:00,23.8,14.0,30.15,SW,229,0.0,-999.0,67,-99.99,,,0.01,weatherlink.com 1.10,2013-02-26 04:41:00,
2013-02-25 21:56:00,22.9,14.0,30.14,SW,229,1.0,-999.0,69,-99.99,,,0.01,weatherlink.com 1.10,2013-02-26 04:56:00,
2013-02-25 22:11:00,22.0,14.0,30.14,SW,229,0.0,-999.0,70,-99.99,,,0.01,weatherlink.com 1.10,2013-02-26 05:11:00,
2013-02-25 22:26:00,21.5,13.0,30.13,SW,229,1.0,-999.0,70,-99.99,,,0.01,weatherlink.com 1.10,2013-02-26 05:26:00,
2013-02-25 22:41:00,21.2,13.0,30.12,SW,229,1.0,-999.0,71,-99.99,,,0.01,weatherlink.com 1.10,2013-02-26 05:41:00,
2013-02-25 22:56:00,20.6,13.0,30.12,SW,229,1.0,-999.0,73,-99.99,,,0.01,weatherlink.com 1.10,2013-02-26 05:56:00,
2013-02-25 23:11:00,20.0,13.0,30.12,SW,229,0.0,-999.0,73,-99.99,,,0.01,weatherlink.com 1.10,2013-02-26 06:11:00,
2013-02-25 23:27:00,19.3,12.0,30.13,SW,229,0.0,-999.0,74,-99.99,,,0.01,weatherlink.com 1.10,2013-02-26 06:27:00,
2013-02-25 23:42:00,18.6,12.0,30.13,SW,229,0.0,-999.0,75,-99.99,,,0.01,weatherlink.com 1.10,2013-02-26 06:42:00,
2013-02-25 23:57:00,18.1,12.0,30.12,SW,229,1.0,-999.0,76,-99.99,,,0.01,weatherlink.com 1.10,2013-02-26 06:57:00,